Flight Track Log - Related Links

Times and Time Zones

All times are in EDT time to prevent confusion due to time zone crossing. See the UAL4563 flight status page for this flight to view local times or setup timezone preferences in your user account.

Time Position Orientation Groundspeed Altitude Reporting Facility
EDT Latitude Longitude Course Direction KTS MPH feet Rate Location/Type
Mon 07:35:51 PM 41.3939 -81.8839 269° West 192 221 1,700  Level Cleveland Center
Mon 07:36:16 PM 41.3936 -81.9144 269° West 179 206 2,800 2,233 Climbing Cleveland Center
Mon 07:36:34 PM 41.3956 -81.9311 279° West 202 232 3,300 2,231 Climbing Cleveland Center
Mon 07:37:34 PM 41.4131 -82.0144 286° West 215 247 5,700 2,900 Climbing Cleveland Center
Mon 07:38:34 PM 41.4814 -82.0550 336° Northwest 230 265 9,100 2,450 Climbing Cleveland Center
Mon 07:39:34 PM 41.5428 -81.9842 41° Northeast 205 236 10,600 1,500 Climbing Cleveland Center
Mon 07:40:34 PM 41.6006 -81.8714 56° Northeast 290 334 12,100 1,750 Climbing Cleveland Center
Mon 07:41:34 PM 41.6600 -81.7561 55° Northeast 340 391 14,100 1,850 Climbing Cleveland Center
Mon 07:42:34 PM 41.7236 -81.6403 54° Northeast 375 432 15,800 1,350 Climbing Cleveland Center
Mon 07:43:34 PM 41.7767 -81.5353 56° Northeast 383 441 16,800 1,150 Climbing Cleveland Center
Mon 07:44:34 PM 41.8361 -81.4053 58° Northeast 400 460 18,100 1,350 Climbing Cleveland Center
Mon 07:45:34 PM 41.8642 -81.2522 76° East 406 467 19,500 1,450 Climbing Cleveland Center
Mon 07:46:34 PM 41.8878 -81.1019 78° East 414 476 21,000 1,350 Climbing Cleveland Center
Mon 07:47:34 PM 41.9156 -80.9431 77° East 424 488 22,200 1,100 Climbing Cleveland Center
Mon 07:48:34 PM 41.9411 -80.7675 79° East 429 494 23,200 1,250 Climbing Cleveland Center
Mon 07:49:34 PM 41.9619 -80.6083 80° East 435 501 24,700 1,850 Climbing Cleveland Center
Mon 07:50:34 PM 41.9850 -80.4547 79° East 427 491 26,900 2,200 Climbing Cleveland Center
Mon 07:51:34 PM 42.0075 -80.3094 78° East 407 468 29,100 1,650 Climbing Cleveland Center
Mon 07:52:34 PM 42.0258 -80.1694 80° East 387 445 30,200 850 Climbing Cleveland Center
Mon 07:53:34 PM 42.0503 -80.0183 78° East 398 458 30,800 650 Climbing Cleveland Center
Mon 07:54:34 PM 42.0703 -79.8783 79° East 405 466 31,500 700 Climbing Cleveland Center
Mon 07:55:34 PM 42.0922 -79.7131 80° East 424 488 32,200 750 Climbing Cleveland Center
Mon 07:56:34 PM 42.1139 -79.5503 80° East 437 503 33,000 400 Climbing Cleveland Center
Mon 07:57:34 PM 42.1372 -79.3819 79° East 448 516 33,000  Level Cleveland Center
Mon 07:58:34 PM 42.1583 -79.2136 80° East 448 516 33,000 50 Level Cleveland Center
Mon 07:59:34 PM 42.1831 -79.0419 79° East 454 522 33,100  Climbing Cleveland Center
Mon 08:00:34 PM 42.2078 -78.8592 80° East 454 522 33,000 -50 Descending Cleveland Center
Mon 08:01:34 PM 42.2300 -78.6875 80° East 454 522 33,000  Level Cleveland Center
Mon 08:02:34 PM 42.2519 -78.5186 80° East 454 522 33,000  Level Cleveland Center
Mon 08:03:34 PM 42.2719 -78.3494 81° East 449 517 33,000  Level Cleveland Center
Mon 08:04:34 PM 42.2933 -78.1775 80° East 449 517 33,000 50 Level Cleveland Center
Mon 08:05:34 PM 42.3147 -78.0083 80° East 449 517 33,100  Climbing Cleveland Center
Mon 08:06:34 PM 42.3358 -77.8361 81° East 449 517 33,000 -50 Descending Cleveland Center
Mon 08:07:34 PM 42.3544 -77.6667 81° East 454 522 33,000  Level Cleveland Center
Mon 08:09:13 PM 42.3858 -77.3997 81° East 478 550 33,000  Level Boston Center
Mon 08:10:13 PM 42.4058 -77.2267 81° East 478 550 33,000  Level Boston Center
Mon 08:11:13 PM 42.4253 -77.0567 81° East 473 544 33,000  Level Boston Center
Mon 08:12:13 PM 42.4469 -76.8836 80° East 466 536 33,000  Level Boston Center
Mon 08:13:13 PM 42.4658 -76.7131 81° East 461 531 33,000  Level Boston Center
Mon 08:14:13 PM 42.4850 -76.5369 82° East 461 531 33,000  Level Boston Center
Mon 08:15:13 PM 42.5033 -76.3692 82° East 461 531 33,000  Level Boston Center
Mon 08:16:13 PM 42.5222 -76.1817 82° East 461 531 33,000  Level Boston Center
Mon 08:17:13 PM 42.5425 -76.0081 81° East 461 531 33,000  Level Boston Center
Mon 08:18:13 PM 42.5581 -75.8342 83° East 461 531 33,000  Level Boston Center
Mon 08:19:13 PM 42.5736 -75.6628 83° East 461 531 33,000  Level Boston Center
Mon 08:20:13 PM 42.5928 -75.4919 81° East 461 531 33,000  Level Boston Center
Mon 08:21:13 PM 42.6097 -75.3206 82° East 461 531 33,000  Level Boston Center
Mon 08:22:13 PM 42.6244 -75.1547 83° East 461 531 33,000 -500 Level Boston Center
Mon 08:23:13 PM 42.6431 -74.9806 82° East 456 525 32,000 -1,100 Descending Boston Center
Mon 08:24:13 PM 42.6572 -74.8061 84° East 461 531 30,800 -1,300 Descending Boston Center
Mon 08:25:13 PM 42.6731 -74.6314 83° East 466 536 29,400 -1,050 Descending Boston Center
Mon 08:26:13 PM 42.6847 -74.4625 85° East 461 531 28,700 -950 Descending Boston Center
Mon 08:27:13 PM 42.6958 -74.2875 85° East 461 531 27,500 -1,200 Descending Boston Center
Mon 08:28:13 PM 42.7069 -74.1072 85° East 461 531 26,300 -1,136 Descending Boston Center
Mon 08:29:25 PM 42.7161 -73.8953 87° East 467 537 25,000 -1,045 Descending Boston Center
Mon 08:30:25 PM 42.7267 -73.7206 85° East 467 537 24,000 -1,050 Descending Boston Center
Mon 08:31:25 PM 42.7389 -73.5511 84° East 460 529 22,900 -1,100 Descending Boston Center
Mon 08:32:25 PM 42.7467 -73.3758 86° East 460 529 21,800 -1,100 Descending Boston Center
Mon 08:33:25 PM 42.7542 -73.2119 86° East 454 522 20,700 -1,200 Descending Boston Center
Mon 08:34:25 PM 42.7614 -73.0453 87° East 443 510 19,400 -850 Descending Boston Center
Mon 08:35:25 PM 42.7706 -72.8869 85° East 438 504 19,000 -350 Descending Boston Center
Mon 08:36:25 PM 42.7753 -72.7314 88° East 420 483 18,700 -1,100 Descending Boston Center
Mon 08:37:25 PM 42.7839 -72.5758 86° East 420 483 16,800 -2,150 Descending Boston Center
Mon 08:38:25 PM 42.7900 -72.4258 87° East 409 471 14,400 -2,150 Descending Boston Center
Mon 08:39:25 PM 42.7942 -72.3014 87° East 393 452 12,500 -1,800 Descending Boston Center
Mon 08:40:25 PM 42.8022 -72.1742 85° East 347 399 10,800 -1,650 Descending Boston Center
Mon 08:41:25 PM 42.8125 -72.0525 83° East 301 346 9,200 -850 Descending Boston Center
Mon 08:42:25 PM 42.8203 -71.9561 84° East 284 327 9,100 -250 Descending Boston Center
Mon 08:43:25 PM 42.8408 -71.8511 75° East 264 304 8,700 -650 Descending Boston Center
Mon 08:44:25 PM 42.8883 -71.7883 44° Northeast 246 283 7,800 -1,150 Descending Boston Center
Mon 08:45:25 PM 42.9297 -71.7311 45° Northeast 252 290 6,400 -2,100 Descending Boston Center
Mon 08:46:25 PM 42.9894 -71.6539 43° Northeast 252 290 3,600 -1,900 Descending Boston Center
Mon 08:47:25 PM 43.0411 -71.5908 42° Northeast 226 260 2,600 -864 Descending Boston Center
Mon 08:48:37 PM 43.0447 -71.5167 86° East 162 186 1,700 -409 Descending Boston Center
Mon 08:49:37 PM 43.0194 -71.4858 138° Southeast 134 154 1,700 -200 Level Boston Center
Mon 08:50:37 PM 42.9839 -71.4667 158° South 133 153 1,300 -550 Descending Boston Center
Mon 08:51:37 PM 42.9525 -71.4472 156° South 133 153 600 -450 Descending Boston Center
Mon 08:52:37 PM 42.9211 -71.4281 156° South 133 153 400 9,200 Descending Boston Center
Mon 08:53:37 PM 42.8897 -71.4086 156° South 133 153 19,000 9,300 Climbing Boston Center
Mon 08:54:37 PM 42.8583 -71.3864 153° Southeast 133 153 19,000  Level Boston Center
Mon 08:56:00 PM 42.9167 -71.4333 316° Northwest  Level FlightAware Approximate
Mon 09:03:00 PM 42.9328 -71.4358 316° Northwest  Level Estimated
Mon 09:04:00 PM 42.9328 -71.4358 316° Northwest  Level Estimated
Mon 09:05:00 PM 42.9328 -71.4358 316° Northwest  Level Estimated
Mon 09:06:00 PM 42.9328 -71.4358 316° Northwest  Level Estimated

Login

Don't have an account? Register now (free) for customized features, flight alerts, and more!